Tracking 19832 objects as of 24-Aug-2019
HD Live streaming from Space Station
objects crossing your sky now

USA 276

Track USA 276 now!
10-day predictions
USA 276 is classified as:


NORAD ID: 42689
Int'l Code: 2017-022A
Perigee: 391.2 km
Apogee: 411.2 km
Inclination: 50.0 °
Period: 92.4 minutes
Semi major axis: 6772 km
RCS: Unknown
Launch date: May 1, 2017
Source: United States (US)
Launch site: AIR FORCE EASTERN TEST RANGE (AFETR)
aabbcc
Your satellite tracking list
Your tracking list is empty




NASA's NSSDC Master Catalog

Two Line Element Set (TLE):
1 42689U 17022A   19223.09880094 0.00002600  00000-0  34011-4 0    00
2 42689  49.9951 285.8795 0014740 322.7343  37.2655 15.57777621    08
Source of the keplerian elements: McCants